[[{"header":{"parameterUnit":"m.s-1","parameterCategory":1,"la1":30.2991,"la2":30.254,"lo1":-89.0895,"lo2":-89.0444,"dy":0.0017,"dx":0.0017,"nx":28,"ny":28,"refTime":"2025-08-24T09:00:00:Z","depth":0,"parameterNumber":2,"parameterNumberName":"U-component_of_WINDS"},"data":[0,0,0,0,0,0,0,0,0,0,0,0,0,0,0,0,0,0,0,0,0,0,0,0,0,0,0,0,0,0,0,0,0,0,0,0,0,0,0,0,0,0,0,0,0,0,0,0,0,0,0,0,0,0,0,0,0,0,3.7409,3.7409,0,3.7427,3.7428,3.7428,3.7306,3.7303,3.7299,3.7296,3.7321,3.7325,3.7329,0,0,0,0,0,0,0,0,0,0,0,0,0,3.7272,3.7275,3.7409,3.7409,3.7409,3.7427,3.7428,3.7428,3.7307,3.7303,3.7298,3.7295,3.732,3.7324,3.7329,0,0,0,0,0,0,0,0,0,0,0,0,0,3.7316,3.7276,3.7409,3.7351,3.7346,3.7427,3.7428,3.7428,3.7308,3.7303,3.7297,3.7293,3.7318,3.7324,3.733,3.7469,0,0,3.7347,3.735,0,0,0,0,0,0,0,0,3.7313,3.7321,3.7359,3.7355,3.735,3.7359,3.7388,3.7442,3.7309,3.7323,3.7296,3.729,3.7338,3.7342,3.7357,3.747,3.7471,3.7348,3.7351,3.7354,3.7355,0,0,0,0,0,0,0,3.731,3.7319,3.7416,3.736,3.7354,3.7325,3.7326,3.7398,3.7359,3.7321,3.7312,3.7316,3.7335,3.7352,3.7357,3.7472,3.7348,3.7353,3.7356,3.7359,3.7697,3.7702,0,0,0,0,0,0,3.7314,3.7317,3.7416,3.7417,3.7318,3.7332,3.7332,3.7361,3.7358,3.7353,3.732,3.731,3.7344,3.735,3.7357,3.7518,3.7354,3.7359,3.7363,3.7692,3.7698,3.7704,0,0,0,0,0,0,3.7312,3.7324,3.7415,3.7365,3.7374,3.734,3.7373,3.7365,3.7381,3.7357,3.735,3.7344,3.7341,3.7349,3.7441,3.7517,3.7362,3.7367,3.7685,3.7694,3.7701,3.7842,0,0,0,0,0,0,3.7309,3.7324,3.7376,3.7367,3.7377,3.7498,3.7378,3.7369,3.7391,3.7378,3.7378,3.7374,3.7337,3.7433,3.7447,3.7522,3.7372,3.7678,3.7689,3.7699,3.783,3.7854,3.7874,0,0,0,0,0,3.7304,3.7417,3.738,3.7392,3.7441,3.7503,3.7509,3.7463,3.7398,3.745,3.7434,3.7374,3.7507,3.7443,3.7458,3.7536,3.7673,3.7686,3.7698,3.782,3.7849,3.7873,0,0,0,0,0,0,3.7439,3.7415,3.7373,3.7486,3.7497,3.7482,3.7546,3.7495,3.7526,3.7513,3.7456,3.7458,3.7559,3.7557,3.7487,3.767,3.7579,3.7595,3.7667,3.7694,3.7716,3.7713,3.7377,0,0,0,0,0,3.7481,3.7532,3.7509,3.7611,3.7618,3.7582,3.7607,3.757,3.758,3.7585,3.7575,3.7589,3.7633,3.7664,3.7704,3.783,3.7827,3.7891,3.7913,3.7931,3.7945,3.8008,3.8036,3.7745,3.7745,3.7745,0,0,3.7571,3.7563,3.7599,3.7637,3.7641,3.7695,3.7586,3.7649,3.7688,3.7595,3.7679,3.7674,3.7685,3.7793,3.7841,3.7795,3.8024,3.7946,3.7961,3.7965,3.8024,3.8052,3.8076,3.7753,3.7752,3.7751,0,0,3.7759,3.776,3.7843,3.7849,3.7855,3.783,3.785,3.7843,3.7834,3.7918,3.7848,3.7895,3.7974,3.7983,3.7998,3.8189,3.8134,3.8204,3.8318,3.8381,3.8404,3.8424,3.8489,3.8514,3.8218,3.8219,3.8219,0,3.7869,3.7946,3.7893,3.7959,3.7977,3.7892,3.7976,3.7985,3.8006,3.8021,3.7968,3.8062,3.8065,3.8173,3.8219,3.8235,3.8256,3.8203,3.8404,3.8424,3.8442,3.8504,3.8529,3.8227,3.8226,3.8225,3.8224,0,3.808,3.8135,3.8201,3.822,3.8246,3.8321,3.8279,3.8313,3.8274,3.8254,3.834,3.8339,3.8375,3.8399,3.8363,3.8502,3.8472,3.8414,3.8321,3.8479,3.8536,3.8559,3.8239,3.8236,3.8233,3.8231,0,0,3.8355,3.8341,3.8366,3.8372,3.8372,3.8414,3.8485,3.8518,3.8547,3.8564,3.8621,3.8688,3.8632,3.865,3.8614,3.867,3.8817,3.8603,3.8603,3.8641,3.8968,3.9011,3.9039,3.8781,3.8786,3.8789,3.8966,0,3.8537,3.8654,3.8608,3.873,3.8778,3.8698,3.8759,3.8767,3.875,3.879,3.8772,3.8819,3.8744,3.8753,3.8805,3.8789,3.8882,3.8776,3.8834,3.8836,3.8831,3.9069,3.9115,3.9283,3.8989,3.8992,3.8995,0,3.8765,3.8787,3.8914,3.8902,3.8921,3.8977,3.9002,3.9042,3.9048,3.9032,3.9051,3.9002,3.9071,3.8979,3.9073,3.9002,3.9023,3.9019,3.9024,3.9026,3.8924,3.9076,3.9335,3.9359,3.903,3.9027,3.9025,0,3.8949,3.9012,3.9094,3.9102,3.9093,3.9133,3.9131,3.9132,3.9155,3.9178,3.9191,3.9224,3.9241,3.9267,3.9229,3.9166,3.9327,3.9233,3.9315,3.9316,3.9352,3.935,3.9616,3.937,3.9369,3.9369,3.9368,0,3.9156,3.9236,3.9176,3.9227,3.9314,3.926,3.9348,3.9337,3.9338,3.9386,3.932,3.9367,3.9313,3.9355,3.9326,3.9406,3.9416,3.9404,3.9395,3.9409,3.941,3.9421,3.9407,3.9375,3.9374,3.9373,3.9372,0,3.9375,3.9339,3.9423,3.9406,3.9404,3.9468,3.9454,3.95,3.9478,3.9539,3.9551,3.9517,3.9562,3.9526,3.9572,3.9552,3.9658,3.9634,3.9655,3.9647,3.973,3.9722,4.0011,4.0045,3.978,3.9782,3.9784,0,3.9509,3.9567,3.9556,3.9581,3.9583,3.9626,3.9647,3.9597,3.9622,3.9633,3.9678,3.9717,3.9745,3.9821,3.9802,3.9836,3.981,3.9909,3.9815,3.9826,3.9809,3.9805,3.9809,3.9928,3.9931,3.9933,3.9935,0,3.9748,3.9727,3.9759,3.9785,3.9811,3.983,3.9844,3.9869,3.9817,3.9849,3.9893,3.9915,3.9959,3.9998,4.0025,4.0024,3.9971,3.9965,3.9985,3.9999,4.0008,4.0002,3.9704,3.9959,3.9956,3.9955,3.9953,3.9952,3.9927,3.9974,3.9972,4.001,4.0014,4.0028,4.007,4.0052,4.0087,4.0117,4.0086,4.0139,4.0143,4.0172,4.0178,4.0218,4.0178,4.0208,4.0215,4.0223,4.0233,4.0003,4.0224,4.0223,4.0222,4.0222,4.0221,0,4.0161,4.0155,4.019,4.0209,4.0239,4.0185,4.0197,4.0225,4.0272,4.0279,4.0307,4.0357,4.0394,4.0377,4.0409,4.0445,4.0422,4.0455,4.0451,4.0451,4.027,4.0247,4.0473,4.0473,4.0473,4.0473,4.0473,4.0473,4.0286,4.0362,4.034,4.0418,4.0412,4.0461,4.0472,4.0484,4.0489,4.0546,4.0576,4.0564,4.0561,4.0592,4.0623,4.0617,4.0632,4.0674,4.0659,4.0489,4.0464,4.0441,4.0419,4.0678,4.0678,4.0837,4.0838,4.0839]},{"header":{"parameterUnit":"m.s-1","parameterCategory":1,"la1":30.2991,"la2":30.254,"lo1":-89.0895,"lo2":-89.0444,"dy":0.0017,"dx":0.0017,"nx":28,"ny":28,"refTime":"2025-08-24T09:00:00:Z","depth":0,"parameterNumber":3,"parameterNumberName":"V-component_of_WINDS"},"data":[0,0,0,0,0,0,0,0,0,0,0,0,0,0,0,0,0,0,0,0,0,0,0,0,0,0,0,0,0,0,0,0,0,0,0,0,0,0,0,0,0,0,0,0,0,0,0,0,0,0,0,0,0,0,0,0,0,0,2.0904,2.0905,0,2.1039,2.1041,2.1042,2.1028,2.1026,2.1024,2.1022,2.1157,2.1162,2.1168,0,0,0,0,0,0,0,0,0,0,0,0,0,2.0626,2.0631,2.0903,2.0905,2.0907,2.1039,2.1041,2.1043,2.1028,2.1026,2.1023,2.1021,2.1155,2.1161,2.1168,0,0,0,0,0,0,0,0,0,0,0,0,0,2.0752,2.0633,2.0903,2.0916,2.0918,2.1039,2.1041,2.1043,2.1029,2.1026,2.1023,2.102,2.1153,2.1161,2.1169,2.1285,0,0,2.1195,2.1198,0,0,0,0,0,0,0,0,2.0745,2.0763,2.0912,2.0915,2.0918,2.1014,2.0993,2.1124,2.103,2.0987,2.1022,2.1018,2.1111,2.1123,2.1155,2.1291,2.1297,2.1195,2.12,2.1204,2.1206,0,0,0,0,0,0,0,2.0737,2.0757,2.0957,2.0914,2.0918,2.0913,2.0927,2.1017,2.1065,2.099,2.099,2.1006,2.1112,2.1147,2.1158,2.1299,2.1195,2.1203,2.1208,2.1211,2.1534,2.1538,0,0,0,0,0,0,2.0725,2.0749,2.0953,2.0961,2.0822,2.092,2.0936,2.0986,2.1064,2.1073,2.1009,2.1005,2.1135,2.1149,2.1163,2.1304,2.1204,2.1212,2.1217,2.1531,2.1535,2.1539,0,0,0,0,0,0,2.072,2.0744,2.0947,2.0855,2.0881,2.0929,2.0984,2.099,2.1026,2.1078,2.1086,2.1036,2.1133,2.1151,2.1255,2.1308,2.1216,2.1223,2.1526,2.1532,2.1537,2.1585,0,0,0,0,0,0,2.0712,2.0742,2.0788,2.0856,2.0886,2.1038,2.0988,2.0995,2.104,2.1037,2.1106,2.1114,2.1132,2.1242,2.1263,2.1318,2.123,2.1522,2.1529,2.1535,2.1579,2.1592,2.1602,0,0,0,0,0,2.0702,2.0795,2.079,2.0815,2.0944,2.1042,2.1058,2.1077,2.1045,2.1091,2.1124,2.1112,2.1298,2.1253,2.1276,2.1334,2.1519,2.1527,2.1535,2.1574,2.1589,2.1602,0,0,0,0,0,0,2.0731,2.0804,2.08,2.0918,2.0974,2.1039,2.1098,2.1093,2.1158,2.1152,2.1171,2.1187,2.1291,2.1322,2.1271,2.1449,2.1404,2.1417,2.1426,2.1441,2.1452,2.1443,2.1237,0,0,0,0,0,2.0751,2.0825,2.0885,2.0984,2.1012,2.105,2.1093,2.1103,2.116,2.1184,2.1225,2.128,2.135,2.1397,2.1465,2.1582,2.1597,2.1634,2.1645,2.1654,2.1666,2.173,2.1747,2.1565,2.1565,2.1565,0,0,2.0793,2.0843,2.0888,2.0991,2.1035,2.111,2.107,2.1151,2.1206,2.1195,2.1296,2.1328,2.139,2.1501,2.1552,2.1531,2.1719,2.1665,2.1672,2.1679,2.174,2.1757,2.1772,2.1571,2.157,2.1569,0,0,2.091,2.0955,2.1042,2.1087,2.1155,2.1179,2.1199,2.1265,2.1286,2.1388,2.1381,2.1445,2.1567,2.1612,2.165,2.1781,2.1772,2.1802,2.1863,2.1925,2.194,2.1953,2.2,2.2016,2.1813,2.1813,2.1813,0,2.0954,2.1069,2.1087,2.117,2.1214,2.1208,2.1295,2.1337,2.1423,2.1453,2.1428,2.158,2.1622,2.1743,2.1775,2.1806,2.1829,2.1796,2.1936,2.1949,2.1962,2.2007,2.2024,2.1816,2.1816,2.1816,2.1815,0,2.1119,2.1198,2.126,2.1345,2.1396,2.148,2.151,2.1559,2.1563,2.159,2.1692,2.1741,2.1819,2.1848,2.1852,2.1969,2.1954,2.1932,2.1887,2.1982,2.2025,2.2042,2.1821,2.182,2.1819,2.1818,0,0,2.126,2.1353,2.1375,2.1413,2.1486,2.1547,2.1629,2.1707,2.1748,2.1806,2.1876,2.1978,2.1958,2.2002,2.2011,2.2065,2.2166,2.2037,2.2039,2.206,2.2297,2.2314,2.2334,2.2159,2.2163,2.2165,2.2292,0,2.1385,2.1534,2.1552,2.1684,2.1757,2.175,2.1822,2.1874,2.1899,2.1963,2.1991,2.2063,2.2031,2.2058,2.2111,2.2142,2.2214,2.2133,2.2224,2.2227,2.221,2.2356,2.2375,2.2493,2.2309,2.2312,2.2314,0,2.1551,2.1615,2.1755,2.1817,2.1848,2.1913,2.1984,2.2046,2.2103,2.2117,2.2165,2.2167,2.2251,2.22,2.2315,2.226,2.2297,2.2318,2.2323,2.2334,2.2277,2.2372,2.253,2.2549,2.234,2.2338,2.2336,0,2.1641,2.1762,2.1861,2.1893,2.1968,2.2013,2.2046,2.21,2.2145,2.2206,2.2235,2.2304,2.2343,2.2396,2.2415,2.2377,2.2529,2.2481,2.2543,2.2543,2.2577,2.2575,2.2746,2.2599,2.2598,2.2598,2.2598,0,2.1779,2.1865,2.1902,2.1964,2.2059,2.2077,2.217,2.22,2.2248,2.2314,2.2311,2.2372,2.2393,2.2457,2.2473,2.2565,2.2582,2.2596,2.2599,2.2597,2.2596,2.2623,2.2616,2.2603,2.2602,2.2601,2.26,0,2.1897,2.1925,2.2033,2.2095,2.2112,2.2179,2.2231,2.2289,2.2313,2.2396,2.2416,2.2453,2.2529,2.2553,2.2643,2.2653,2.2762,2.2757,2.2743,2.2744,2.2806,2.28,2.3001,2.3029,2.2862,2.2864,2.2865,0,2.1984,2.205,2.2119,2.2163,2.2198,2.2269,2.2315,2.2334,2.2381,2.245,2.25,2.2574,2.2636,2.2755,2.2789,2.2858,2.2856,2.2921,2.2866,2.2862,2.2858,2.2855,2.2861,2.2932,2.2934,2.2936,2.2937,0,2.2136,2.2147,2.2214,2.2286,2.234,2.2397,2.2452,2.2488,2.2514,2.2567,2.2645,2.2692,2.2785,2.2859,2.2928,2.2959,2.2953,2.2953,2.2972,2.2972,2.2961,2.2969,2.2773,2.2949,2.2948,2.2947,2.2946,2.2946,2.2242,2.2301,2.2358,2.2432,2.2475,2.2526,2.2584,2.2615,2.268,2.2758,2.2764,2.2848,2.2901,2.2994,2.3029,2.3093,2.3074,2.31,2.3107,2.3114,2.312,2.2949,2.3105,2.3105,2.3105,2.3104,2.3104,0,2.2395,2.2431,2.2499,2.2577,2.2634,2.2623,2.2682,2.2731,2.2805,2.2856,2.2916,2.3004,2.3075,2.3114,2.3185,2.3229,2.3227,2.3247,2.3244,2.3252,2.3132,2.311,2.3247,2.3247,2.3247,2.3247,2.3247,2.3247,2.2482,2.258,2.2597,2.2715,2.275,2.2833,2.2868,2.2914,2.2955,2.3054,2.3114,2.3139,2.3184,2.3258,2.3322,2.3331,2.3358,2.338,2.3387,2.3275,2.326,2.3246,2.3226,2.3385,2.3385,2.3502,2.3503,2.3504]}]]